Weather History for Greybull, WY

Change the Weather History Date:

Friday, January 31, 2014

  Actual Average Record
Temperature  
Mean Temperature 11 °F 18 °F  
Max Temperature 20 °F 30 °F 47 °F (2006)
Min Temperature 1 °F 7 °F -17 °F (2011)
Degree Days  
Heating Degree Days 54 47  
Month to date heating degree days 1358 1493  
Since 1 July heating degree days 4473 4814  
Cooling Degree Days 0 0  
Month to date cooling degree days 0 0  
Year to date cooling degree days 0 0  
Moisture  
Dew Point 6 °F    
Average Humidity 85    
Maximum Humidity 96    
Minimum Humidity 73    
Precipitation  
Precipitation T in 0.01 in 0.02 in (2007)
Month to date precipitation 0.04 0.23  
Year to date precipitation 0.04 0.23  
Sea Level Pressure  
Sea Level Pressure 29.96 in    
Wind  
Wind Speed 3 mph (South)    
Max Wind Speed 10 mph    
Max Gust Speed 12 mph    
Visibility 10 miles    
Events      
T = Trace of Precipitation, MM = Missing Value Source: NWS Daily Summary

Daily Weather History Graph

Daily Weather History Graph

Search for Another Location

Airport:

Trip Planner

Search our weather history database for the weather conditions in past years. The results will help you decide how hot, cold, wet, or windy it might be!

Date:

Astronomy

Jan. 31, 2014 Rise Set
Actual Time 7:31 AM MST 5:20 PM MST
Civil Twilight 7:00 AM MST 5:51 PM MST
Nautical Twilight 6:25 AM MST 6:26 PM MST
Astronomical Twilight 5:51 AM MST 7:00 PM MST
Moon 7:39 AM MST (1/31) 6:53 PM MST (1/31)
Length of Visible Light 10h 50m
Length of Day
9h 48m
New Moon, 1% of the Moon is Illuminated
Jan 31
New Moon
Feb 6
First Quarter
Feb 14
Full
Feb 22
Last Quarter
Mar 1
New

Hourly Weather History & Observations

Time (MST) Temp. Windchill Dew Point Humidity Pressure Visibility Wind Dir Wind Speed Gust Speed Precip Events Conditions
12:53 AM 7.0 °F -3.3 °F 3.9 °F 87% 30.01 in 10.0 mi East 5.8 mph - N/A   Mostly Cloudy
1:53 AM 7.0 °F 0.1 °F 3.9 °F 87% 30.02 in 10.0 mi ESE 3.5 mph - N/A   Overcast
2:53 AM 8.1 °F 1.4 °F 5.0 °F 87% 30.01 in 10.0 mi ESE 3.5 mph - N/A   Overcast
3:53 AM 9.0 °F - 6.1 °F 88% 30.00 in 7.0 mi Calm Calm - 0.00 in   Overcast
4:53 AM 9.0 °F 0.6 °F 5.0 °F 84% 29.98 in 9.0 mi SSE 4.6 mph - 0.00 in   Overcast
5:53 AM 8.1 °F - 5.0 °F 87% 29.99 in 10.0 mi Calm Calm - N/A   Overcast
6:31 AM 7.0 °F - 3.9 °F 87% 29.80 in 10.0 mi Calm Calm - N/A   Overcast
6:53 AM 7.0 °F 0.1 °F 3.9 °F 87% 29.99 in 10.0 mi SE 3.5 mph - N/A   Overcast
7:17 AM 5.0 °F -6.9 °F 3.0 °F 92% 29.80 in 10.0 mi South 6.9 mph - N/A   Mostly Cloudy
7:30 AM 5.0 °F - 3.0 °F 92% 29.80 in 10.0 mi Calm Calm - N/A   Mostly Cloudy
7:45 AM 5.0 °F - 1.9 °F 87% 29.80 in 10.0 mi Calm Calm - N/A   Scattered Clouds
7:53 AM 1.9 °F -5.6 °F -0.9 °F 88% 30.01 in 10.0 mi South 3.5 mph - N/A   Scattered Clouds
8:53 AM 5.0 °F -4.1 °F 3.0 °F 92% 30.01 in 10.0 mi South 4.6 mph - N/A   Mostly Cloudy
9:53 AM 8.1 °F 1.4 °F 5.0 °F 87% 30.00 in 9.0 mi Variable 3.5 mph - N/A   Clear
10:08 AM 7.0 °F -4.5 °F 5.0 °F 92% 29.81 in 9.0 mi South 6.9 mph - N/A   Partly Cloudy
10:53 AM 9.0 °F - 6.1 °F 88% 30.02 in 8.0 mi Calm Calm - N/A   Partly Cloudy
11:53 AM 12.0 °F 5.9 °F 7.0 °F 80% 30.00 in 10.0 mi WSW 3.5 mph - N/A   Clear
12:53 PM 16.0 °F 7.4 °F 10.0 °F 77% 29.96 in 10.0 mi SW 5.8 mph - N/A   Clear
1:53 PM 18.0 °F 12.7 °F 10.9 °F 74% 29.93 in 10.0 mi WSW 3.5 mph - N/A   Clear
2:53 PM 19.0 °F 12.3 °F 12.0 °F 74% 29.91 in 10.0 mi West 4.6 mph - N/A   Clear
3:53 PM 19.0 °F 12.3 °F 12.0 °F 74% 29.93 in 10.0 mi West 4.6 mph - N/A   Scattered Clouds
4:53 PM 16.0 °F 10.4 °F 10.9 °F 81% 29.95 in 10.0 mi WSW 3.5 mph - N/A   Partly Cloudy
5:53 PM 16.0 °F - 10.9 °F 81% 29.97 in 10.0 mi Calm Calm - N/A   Overcast
6:53 PM 12.9 °F 6.9 °F 9.0 °F 84% 29.99 in 10.0 mi NNE 3.5 mph - N/A   Overcast
7:53 PM 9.0 °F - 5.0 °F 84% 30.01 in 10.0 mi Calm Calm - N/A   Overcast
8:53 PM 7.0 °F -4.5 °F 5.0 °F 92% 30.02 in 10.0 mi WNW 6.9 mph - N/A   Scattered Clouds
9:53 PM 10.0 °F 0.4 °F 6.1 °F 84% 30.02 in 10.0 mi South 5.8 mph - N/A   Overcast
10:53 PM 10.0 °F - 6.1 °F 84% 30.03 in 10.0 mi Calm Calm - N/A   Overcast
11:53 PM 9.0 °F 0.6 °F 5.0 °F 84% 30.03 in 8.0 mi SSE 4.6 mph - 0.00 in   Overcast